Torna al catalogo

FENGYUN 1C DEB

AttivoSSO
NORAD 31043·DEBRIS·🇨🇳 China

Lanciato May 10, 1999 da Taiyuan Satellite Launch Center

Loading…

Prossimi Passaggi (prossime 24 ore)

TLE

AggiornatoSource: Space-Track

Epoca: Sep 14, 2026, 07:35 UTC

1 31043U 99025BEM 26257.31654321  .00000361  00000-0  23237-3 0  9993
2 31043  98.7521 272.2089 0040172 305.8407 121.3710 14.08818852998675

Traccia FENGYUN 1C DEB in tempo reale con AllMySat

Download on the App Store